Regional Weather Roundup
Issued by NWS

Home | Current Version | Previous Version | Graphics & Text | Print | Product List | Glossary On
Versions: 1 2 3 4 5 6 7 8 9 10 11 12 13 14 15 16 17 18 19 20 21 22 23 24 25 26 27 28 29 30 31 32 33 34 35 36 37 38 39 40 41 42 43 44 45 46 47 48 49 50
000
ASUS45 KSLC 221210
RWRUT

UTAH REGIONAL WEATHER ROUNDUP
NATIONAL WEATHER SERVICE SALT LAKE CITY UT
600 AM MDT SUN APR 22 2018

UTZ001>011-023>025-221300-

NORTHERN UTAH

CITY           SKY/WX    TMP DP  RH WIND       PRES   REMARKS
BRIGHAM CITY   CLEAR     43  32  66 CALM      30.14S
HILL AFB       CLEAR     46  26  46 NE12      30.14S
LOGAN          CLEAR     41  31  67 CALM      30.16S
OGDEN          CLEAR     46  27  47 MISG      30.13S
SALT LAKE CITY CLEAR     47  33  58 SE7       30.12F
TOOELE VALLEY  CLEAR     45  32  61 S9        30.14S
WENDOVER       PTCLDY    51  27  39 NE3       30.12S
HEBER CITY       N/A     28  21  74 CALM      30.22R
WEST JORDAN    CLEAR     43  33  67 SW9       30.15S

$$

UTZ011>015-024>027-221300-

CENTRAL/NORTHEAST UTAH

CITY           SKY/WX    TMP DP  RH WIND       PRES   REMARKS
PROVO AIRPORT  CLEAR     43  29  57 SE8       30.17S
MOAB/CANYONLAN CLEAR     49  34  56 VRB6      30.14S
DELTA          CLEAR     39  34  81 NE5       30.15S
PRICE          CLEAR     39  24  55 N7        30.18S WCI  34
ROOSEVELT      CLEAR     36  30  80 W6        30.20S WCI  31
VERNAL         CLEAR     42  31  64 VRB5      30.19R

$$

UTZ013>016-019>022-027-221300-

SOUTHERN UTAH

CITY           SKY/WX    TMP DP  RH WIND       PRES   REMARKS
BRYCE CANYON   PTCLDY    28  22  78 W9        30.25F WCI  19
CEDAR CITY     PTCLDY    33  28  81 NE3       30.15F
MILFORD        CLEAR     37  34  89 SW7       30.15S WCI  32
ST GEORGE      SUNNY     54  25  32 SE6       30.06R
HANKSVILLE     PTCLDY    45  27  49 N3        30.16S
BLANDING         N/A     44  25  47 NE8       30.25S

$$

REGIONAL REPORTS     COLORADO/ARIZONA

CITY           SKY/WX    TMP DP  RH WIND       PRES   REMARKS
CRAIG, CO      CLEAR     28  26  92 SW3       30.25R
GRAND JUNCTION CLEAR     42  35  76 E13       30.20S
RIFLE, CO      CLEAR     33  31  92 CALM      30.26S
MONTROSE, CO   CLEAR     35  29  78 SE8       30.26S WCI  29
CORTEZ, CO     CLEAR     31  21  66 E3        30.19F
COLORADO CITY    N/A     37  30  75 S5        30.15S WCI  34
PAGE, AZ       PTCLDY    52  30  43 SW6       30.10S
GRAND CANYON   CLOUDY    31  22  69 NE3       30.20S
KINGMAN, AZ    PTCLDY    50  21  32 E3        30.02F
FLAGSTAFF, AZ  MOCLDY    28  16  60 CALM      30.21S

$$

REGIONAL REPORTS    NEVADA/IDAHO/WYOMING

CITY           SKY/WX    TMP DP  RH WIND       PRES   REMARKS
LAS VEGAS, NV  MOCLDY    64  28  25 SW3       29.97F
ELY, NY        CLEAR     31  19  61 S8        30.19F WCI  23
ELKO, NV       CLEAR     32  30  92 S3        30.14S
POCATELLO, ID  CLEAR     39  31  72 SW5       30.15R
BURLEY, ID     CLEAR     34  29  82 S6        30.13R WCI  29
FORT BRIDGER,    N/A     41  26  57 SW8       30.26S
EVANSTON, WY   CLEAR     39  24  55 S5        30.24F
ROCK SPRINGS,  CLEAR     35  26  69 S8        30.22R WCI  29
KEMMERER, WY   CLEAR     32  25  74 NW3       30.24S

$$



USA.gov is the U.S. government's official web portal to all federal, state and local government web resources and services.